2023-117F (57585 NORAD) Tracking and Keplerian Element Data

This shows tracking and keplerian element data for the satellite.

Feedback or suggestion? Click here.




ElementValue
Catalog57585
Name2023-117F
Epoch Orbit255
Epoch Day239.16390842
Epoch Year2023
RAAN310.7763
Inclination97.5232
Eccentricity0.0011549
Argument of Perigee231.1131
Mean Anonmoly128.9069
Mean Motion15.11269363
Decay Rate5.927E-05
L11 57585U 23117F 23239.16390842 .00005927 00000+0 35550-3 0 9999
L22 57585 97.5232 310.7763 0011549 231.1131 128.9069 15.11269363 2553



Live tracking and technical data element details for 2023-117F (NORAD 57585). 2023-117F can be tracked NOW for your location showing map with azimuth and elevation plus other details from your city location.







IsCatalogInMostPopularTable: catalog: 57585, numindb: 4
Update: records affected: 1



GetName: 57585 2023-117F

Hit Count: updated at: Tue, 26 Sep 2023 13:25:53 GMT